Location: Eckley
(40.9930°N, 75.8630°W)
Time: 02:55:52
(UTC-04:00)

Daily predictions for brighter satellites

Satellite Brightness Start Highest point End
(mag) Time Altitude Azimuth Time Altitude Azimuth Time Altitude Azimuth
ATLAS 2AS CENTAUR R/B 4.2 02:33:48 37° NNE 02:33:48 37° NNE 02:38:16 10° NE
Cosmos 2333 Rocket 4.3 03:05:57 10° N 03:10:24 23° NE 03:14:48 10° ESE
Cosmos 2237 Rocket 4.0 03:30:48 10° N 03:35:37 28° NE 03:40:23 10° ESE
Lacrosse 5 4.0 03:38:47 22° E 03:38:47 22° E 03:41:03 10° ENE
ATLAS 5 CENTAUR R/B 3.8 03:37:21 17° N 03:41:16 35° NE 03:47:03 10° ESE
ARIANE 5 R/B 4.3 03:47:46 10° N 03:49:50 25° N 03:49:50 25° N
NOSS 3-4 (A) 3.9 04:00:48 55° ESE 04:00:49 55° ESE 04:07:09 10° NE
NOSS 3-4 (C) 3.9 04:00:53 55° ESE 04:00:56 55° ESE 04:07:16 10° NE
Gbstr 26 Del rocket 4.2 04:03:05 86° SSE 04:03:05 86° SSE 04:11:01 10° SE
Cosmos 2344 3.4 04:06:57 76° WSW 04:07:39 84° NW 04:16:25 10° NE
Cosmos 2227 Rocket 2.9 04:07:44 48° ESE 04:07:57 48° ESE 04:13:23 10° NE
RESURS DK-1 4.5 04:10:02 24° E 04:10:02 24° E 04:12:42 10° NE
CZ-2D R/B 3.3 04:04:51 10° N 04:07:49 35° N 04:07:49 35° N
Cosmos 2219 Rocket 4.4 04:08:41 10° NNW 04:20:32 - SSE 04:09:24 14° NNW
SL-16 R/B 4.0 04:20:48 23° NNW 04:20:48 23° NNW 04:23:04 10° NNW
Cosmos 2297 Rocket 3.2 04:15:57 35° SE 04:17:21 41° ESE 04:22:38 10° NE
ATLAS 2AS CENTAUR R/B 4.2 04:21:15 27° NW 04:22:17 27° NW 04:29:03 10° NNE
NOSS 0 Rocket 3.8 04:23:37 10° NNW 04:29:53 86° WSW 04:36:07 10° SSE
MOS 1-B 4.2 04:26:35 10° N 04:32:12 72° WNW 04:32:12 72° WNW
Cosmos 1934 Rocket 4.3 04:27:27 10° NNW 04:32:19 49° NW 04:32:19 49° NW
IRS-1C Rocket 4.3 04:29:00 10° NNE 04:34:17 68° ESE 04:35:36 49° SSE
Resurs 1-4 Rocket 3.2 04:30:58 10° N 04:34:07 31° NNW 04:34:07 31° NNW
Cosmos 1605 Rocket 3.8 04:30:27 10° N 04:36:36 81° W 04:39:10 38° S
BREEZE-M DEB (TANK) 3.3 04:41:55 67° SE 04:41:55 67° SE 04:44:46 10° ENE
PAYLOAD B 4.3 04:40:45 10° NNE 04:46:16 73° ESE 04:49:09 29° S
Cosmos 2082 3.5 04:46:49 60° SSW 04:47:54 86° WNW 04:53:34 10° NNE
NOSS 3-2 (A) 3.9 04:42:48 10° NW 04:50:18 69° WSW 04:58:19 10° SSE
Cosmos 1025 Rocket 3.0 04:51:03 72° SSE 04:51:26 81° E 04:55:46 10° N
CZ-4B R/B 3.2 04:47:47 10° NNE 04:52:12 75° ESE 04:53:24 48° S
Cosmos 923 Rocket 4.0 04:47:29 10° NNW 04:54:43 38° S 04:58:01 10° S
Lacrosse 5 rocket 3.4 04:53:31 19° NNW 04:53:31 19° NNW 04:56:40 10° NNE
Cosmos 2333 Rocket 2.1 04:49:28 10° NNW 04:55:05 58° WSW 05:00:36 10° S
BREEZE-M DEB (TANK) 3.9 04:58:54 20° N 04:59:34 22° NNE 05:01:50 10° E
Okean O Rocket 1.5 04:56:02 10° N 05:00:24 65° WNW 05:00:24 65° WNW
DELTA 2 R/B (1) 4.1 05:01:53 38° SSW 05:03:28 48° SSE 05:08:49 10° E
Cosmos 1606 Rocket 3.4 05:01:38 10° N 05:06:03 89° ESE 05:10:22 10° S
Okean 2 3.7 05:03:14 19° S 05:06:03 64° E 05:10:10 10° NNE
Meteor 1-19 Rocket 4.1 05:04:57 31° SSW 05:07:40 69° W 05:13:16 10° N
USA 215 4.2 05:04:42 10° S 05:08:45 26° SW 05:08:45 26° SW
Cosmos 2061 Rocket 4.2 05:04:49 10° N 05:11:09 75° E 05:17:30 10° SSE
Delta 2 Rocket 3.9 05:13:34 36° S 05:13:34 36° S 05:16:48 10° ESE
Cosmos 2100 Rocket 4.0 05:08:20 10° N 05:14:36 87° E 05:20:54 10° S
Cosmos 1898 Rocket 3.9 05:09:24 10° S 05:14:39 64° ESE 05:19:54 10° NNE
Cosmos 1802 Rocket 4.2 05:08:32 10° N 05:14:43 70° E 05:20:48 10° SSE
Cosmos 1726 Rocket 3.4 05:12:41 10° N 05:17:05 82° W 05:21:26 10° S
CZ-4B R/B 3.1 05:11:48 10° N 05:17:10 65° WNW 05:20:48 21° SSW
CZ-2C R/B 3.9 05:17:20 37° SW 05:18:25 44° W 05:22:50 10° NNW
Lacrosse 5 2.2 05:18:00 38° W 05:19:28 50° NW 05:24:25 10° NE
Cosmos 2237 Rocket 2.4 05:14:30 10° NW 05:19:50 44° WSW 05:25:06 10° S
Cosmos 1666 2.5 05:15:57 10° N 05:19:50 78° W 05:23:39 10° S
Meteor 2-4 Rocket 3.7 05:17:27 11° SSW 05:23:00 71° W 05:28:56 10° N
Tiangong 1 0.9 05:23:36 67° NW 05:23:45 69° N 05:26:47 10° ENE
ATLAS 5 CENTAUR R/B 2.6 05:20:21 10° NW 05:26:13 50° WSW 05:32:27 10° S
CENTAUR R/B 3.6 05:18:53 10° NNW 05:26:36 61° NE 05:34:49 10° SE
Meteor 1-23 Rocket 4.1 05:21:30 10° SSW 05:27:05 71° W 05:32:48 10° N
Cosmos 292 Rocket 3.7 05:22:37 10° NNW 05:27:29 71° WSW 05:32:18 10° S
ADEOS Rocket 3.2 05:20:31 10° N 05:27:43 77° WNW 05:34:10 10° SSW
Cosmos 1892 Rocket 3.5 05:24:41 17° SSW 05:28:06 66° W 05:32:34 10° N
NOSS 3-2 (C) 4.2 05:20:54 10° NW 05:28:10 50° WSW 05:35:55 10° S
Cosmos 1937 Rocket 4.0 05:23:37 10° S 05:28:44 61° ESE 05:33:56 10° NNE
ADEOS II 2.0 05:28:06 10° NNE 05:33:24 89° WNW 05:38:39 10° SSW
Cosmos 1980 4.3 05:28:33 10° NW 05:33:28 31° WSW 05:38:22 10° SSW
PSLV R/B 3.5 05:30:59 10° N 05:35:19 68° WNW 05:39:34 10° SSW
SL-16 R/B 2.1 05:33:55 10° NNW 05:39:35 71° WSW 05:45:12 10° SSE
ASTRO F (AKARI) 4.5 05:38:32 10° S 05:41:34 44° W 05:44:40 10° NNW
Meteor 2-9 Rocket 4.3 05:37:07 10° NNW 05:42:38 55° W 05:48:14 10° S
NOSS 2-2 (E) 4.3 05:39:20 10° SSW 05:43:20 52° ESE 05:47:55 10° NE
OE (NEXTSAT) 4.4 05:41:19 24° WNW 05:43:23 85° NNE 05:47:01 10° ESE
Meteor PRIRODA 3.5 05:42:46 10° N 05:46:31 73° WNW 05:50:12 10° SSW
RESURS DK-1 3.4 05:46:01 23° W 05:47:14 27° WNW 05:50:48 10° N
Cosmos 2228 3.0 05:44:29 10° NNW 05:48:51 68° W 05:53:11 10° S
Cosmos 2016 Rocket 4.0 05:43:56 10° N 05:50:16 75° W 05:56:31 10° S
Cosmos 1680 Rocket 4.5 05:46:16 10° NW 05:50:25 24° W 05:54:32 10° SSW
NOSS 3-4 (A) 4.4 05:48:17 18° W 05:52:03 32° NW 05:57:54 10° NNE
NOSS 3-4 (C) 4.4 05:48:21 18° W 05:52:08 32° NW 05:58:00 10° NNE
Cosmos 2227 Rocket 3.3 05:49:37 19° W 05:52:14 26° NW 05:56:56 10° N
OPS 6432 4.2 05:49:35 12° SSW 05:52:43 86° SE 05:55:49 10° NE
Cosmos 1346 Rocket 3.7 05:51:14 20° WSW 05:53:03 28° WNW 05:56:32 10° NNW
Cosmos 2173 Rocket 4.1 05:50:04 10° NNW 05:55:53 48° W 06:01:43 10° SSW
USA 129 1.2 05:54:00 10° S 05:55:58 77° WSW 05:57:47 10° NNW
SL-08 R/B 4.5 05:51:47 10° N 05:58:01 78° W 06:04:19 10° S
Cosmos 2297 Rocket 3.1 05:57:49 15° WSW 06:01:30 29° NW 06:06:25 10° N
OTV 4 2.6 06:01:46 11° SW 06:02:10 11° SSW 06:03:10 10° S
Okean-O 3.0 05:59:26 10° N 06:03:39 43° WNW 06:07:50 10° SW
Cosmos 1459 Rocket 4.4 05:58:15 10° NNW 06:04:09 41° W 06:09:59 10° SSW
Cosmos 2123 Rocket 3.9 06:01:08 10° S 06:07:18 78° W 06:13:30 10° N
Cosmos 2058 Rocket 3.8 06:04:03 10° NNW 06:07:49 29° W 06:11:34 10° SSW
SL-24 R/B 4.1 06:09:09 10° NNE 06:13:33 79° ESE 06:17:25 10° S
CZ-4B R/B 3.8 06:10:33 10° N 06:14:26 56° WNW 06:18:07 10° SSW
Aureole 2 Rocket 3.2 06:16:03 10° NW 06:19:03 28° WSW 06:21:48 10° SSW
EXPRESS MD2 3.8 06:16:49 10° WNW 06:20:22 78° SSW 06:27:40 10° SE
COSMO-SKYMED 1 2.6 06:16:22 10° SSE 06:20:42 87° E 06:25:04 10° NNW
Cosmos 1943 4.5 06:17:45 10° NNW 06:23:09 45° ENE 06:28:30 10° SE
Cosmos 1825 Rocket 4.3 06:22:18 10° S 06:26:38 59° E 06:30:57 10° NNE
Cosmos 1603 3.7 06:21:10 10° NNW 06:26:55 77° WSW 06:32:34 10° SSE
Cosmos 990 Rocket 4.3 06:27:16 10° SW 06:32:20 48° WNW 06:37:26 10° N
